Preview of NWS' New Version of Forecast
This preview is not operational and should not be used for support decisions.

Regional Weather Roundup (RWR)

Issued by Gray - Portland, ME (GYX)

                            
000
ASUS41 KGYX 182005
RWRGYX
WEATHER ROUNDUP FOR MAINE AND NEW HAMPSHIRE
NATIONAL WEATHER SERVICE GRAY ME
400 PM EDT TUE JUN 18 2019

MEZ002-005-006-010-012-015-018-020-021-024-026-027-029-182100-
MAINE
  
CITY           SKY/WX    TMP DP  RH WIND       PRES   REMARKS
PORTLAND       FAIR      64  52  64 E7        29.95F                  
SANFORD        FAIR      65  56  72 E6        29.94F                  
BAR HARBOR     CLOUDY    64  50  60 SW8       29.95F                  
WISCASSET      FAIR      70  48  45 VRB5      29.96S                  
ROCKLAND       CLOUDY    65  54  67 S3        29.96S                  
FRYEBURG       PTSUNNY   74  52  46 VRB6      29.94F                  
LEWISTONAUBURN CLOUDY    71  51  49 CALM      29.94F                  
AUGUSTA        PTSUNNY   69  53  56 S6        29.95F                  
WATERVILLE     FAIR      69  52  54 VRB3      29.93F                  
BANGOR         PTSUNNY   73  47  39 SW12      29.93S                  
GREENVILLE       N/A     71  46  40 VRB5      29.91F                  
MILLINOCKET    PTSUNNY   75  48  38 VRB3      29.91F                  
HOULTON        FAIR      76  46  34 SW9       29.88F                  
PRESQUE ISLE   CLOUDY    75  45  34 W12       29.88F                  
FRENCHVILLE    FAIR      77  43  29 SW12G17   29.86F                  
CARIBOU        FAIR      76  44  32 W12       29.86F                  
$$

NHZ002-005-008-009-011-012-014-182100-
NEW HAMPSHIRE
  
CITY           SKY/WX    TMP DP  RH WIND       PRES   REMARKS
PORTSMOUTH     CLOUDY    64  56  76 E3        29.92F                  
ROCHESTER      FAIR      70  56  61 SE6       29.93F                  
NASHUA         FAIR      67  63  87 NW6       29.93F                  
MANCHESTER     CLOUDY    71  60  68 S6        29.91F                  
CONCORD          N/A     71  55  56 CALM      29.93                   
LACONIA        FAIR      70  54  56 NE8       29.93F                  
PLYMOUTH       CLOUDY    72  52  50 NE5       29.93F                  
BERLIN         PTSUNNY   72  49  44 S6        29.94F                  
WHITEFIELD     PTSUNNY   72  52  49 VRB6      29.94F                  
JAFFREY        FAIR      66  59  78 CALM      29.94F                  
KEENE          CLOUDY    67  60  78 CALM      29.94S                  
LEBANON        CLOUDY    77  53  43 CALM      29.91F                  
MT WASHINGTON  CLOUDY    48  43  81 W18         N/A                   
$$

VTZ005-007-008-182100-
VERMONT
  
CITY           SKY/WX    TMP DP  RH WIND       PRES   REMARKS
ST JOHNSBURY     N/A     74  51  44 MISG      29.91F                  
BURLINGTON     FAIR      79  54  41 SW5       29.89F                  
$$

MAZ007-012-024-CTZ003-RIZ002-NYZ038-NYZ072-182100-
SOUTHERN NEW ENGLAND AND NY
  
CITY           SKY/WX    TMP DP  RH WIND       PRES   REMARKS
BOSTON         LGT RAIN  65  62  90 SE3       29.92F FOG              
WORCESTER      CLOUDY    66  64  93 E6        29.93F                  
NANTUCKET      LGT RAIN  61  61 100 E8        29.95F FOG              
PROVIDENCE     LGT RAIN  66  63  90 S8        29.93F                  
HARTFORD       LGT RAIN  69  65  86 CALM      29.90F FOG              
ALBANY         PTSUNNY   73  64  73 CALM      29.91F                  
NEW YORK CITY  CLOUDY    73  68  84 VRB7      29.87F                  
$$

ANZ081-ANZ082-ANZ150-NHZ014-MEZ023>029-182100-
COASTAL MARINE OBSERVATIONS
  
STATION/POSITION TIME  TEMP    WIND        PRES    WAVE
                       AIR SEA DIR/SP/G            HT/PER
                 (UTC) (F)     (DEG/KT/KT) (MB)    (FT/S)
ISLE OF SHOALS   1900   57     330/  2/  2 1013.9F
JEFFREYS LEDGE   1938      57                N/A     2/13
CASHES LEDGE BUO 1950   55 53  170/  6/  6 1014.8F   2/ 8
GEORGES BANK BUO 1950   53 49   90/  6/  6 1015.7F   4/ 6
$$

.............KEY..............
   WCI - WIND CHILL
   TC  - TEMPERATURE IN CELSIUS
   VSB - VISIBILITY IN MILES
   HX  - HEAT INDEX
   FAIR- INDICATES FEW OR NO CLOUDS BELOW 12,000 FT, WITH NO 
         SIGNIFICANT WEATHER AND/OR OBSTRUCTIONS TO VISIBILITY.